RH
2 4 39 100 98 17 23 35 31 20 27 25 23 22 23 22 24 22 23 28 40 56 62 70 76 89 91 86 87 85 87 89 84 85 89 84 86 72 44 39 45 40 39 33
2 2 10 49 97 60 12 29 34 25 19 21 23 26 29 27 29 23 30 37 45 54 64 72 77 76 83 90 86 76 62 68 63 54 52 42 40 33 32 32 39 46 35 29
2 2 3 17 55 99 29 14 26 34 34 24 37 52 59 54 36 50 50 55 58 68 71 67 80 82 82 85 70 46 34 37 41 48 45 44 44 41 40 39 41 33 27 24
2 2 3 5 40 93 95 20 15 20 30 53 60 54 42 48 58 70 47 40 40 59 71 73 68 52 45 42 34 36 39 46 48 47 48 47 48 45 38 31 28 25 26 22
2 2 4 5 16 89 100 93 21 19 18 24 33 40 34 32 38 58 69 78 61 55 82 82 67 38 30 28 26 30 34 40 40 37 36 32 31 30 29 29 30 30 24 26
3 2 5 6 9 34 97 100 55 23 18 19 16 20 24 29 28 32 60 70 85 89 95 71 50 32 31 31 31 30 32 33 33 33 34 37 37 35 33 31 29 27 30 35
5 5 5 9 43 46 82 100 99 35 23 20 19 16 17 18 27 28 32 42 62 80 80 64 51 37 32 30 30 33 35 38 40 44 43 40 33 30 28 29 29 36 43 71
10 19 10 13 35 57 100 100 100 94 43 34 27 21 18 17 16 20 30 46 53 55 74 79 67 54 46 38 33 33 33 37 47 46 40 36 33 31 36 45 59 61 82 87
12 35 52 28 33 71 100 100 100 100 95 74 56 50 41 32 21 19 18 19 30 48 51 50 67 76 69 58 54 48 46 47 45 45 42 38 35 31 36 56 69 77 94 86
53 85 94 100 67 54 100 100 100 100 100 97 94 79 76 69 60 50 36 22 19 17 29 46 44 42 52 73 74 64 58 53 49 46 43 38 33 31 35 54 72 82 99 91
89 90 98 100 100 95 88 100 100 100 100 96 100 95 96 97 94 86 82 74 50 32 21 16 27 39 36 37 52 72 69 63 60 55 46 40 36 31 39 66 79 93 99 95
90 94 88 100 100 100 93 93 97 100 100 100 100 100 100 99 98 100 100 100 99 89 54 33 19 17 23 32 33 36 45 59 57 54 51 47 45 35 37 69 84 93 99 99
91 100 100 96 100 100 100 100 94 83 100 100 100 100 100 100 100 100 100 100 100 100 100 89 54 27 23 22 24 29 29 32 39 49 50 47 45 48 40 38 88 96 100 100
99 100 100 100 100 99 100 100 100 100 100 100 100 100 100 95 77 60 52 66 86 93 100 100 94 68 33 27 30 32 39 34 37 38 43 47 47 43 48 39 54 88 94 94
100 100 100 100 100 100 100 100 100 100 100 99 92 58 35 26 27 29 27 29 25 23 36 99 93 100 78 29 29 35 45 44 40 42 43 43 46 47 47 44 50 77 93 93
100 100 100 100 100 100 100 100 100 82 38 24 27 22 24 37 30 41 29 18 20 24 27 47 100 100 100 55 24 36 43 38 36 45 53 47 44 45 43 36 44 76 90 91
100 100 100 100 100 100 100 86 49 36 30 38 27 34 32 30 41 53 16 6 5 8 21 45 100 100 100 82 33 40 39 38 38 38 49 65 53 50 40 34 37 57 86 93
100 100 100 100 100 100 99 63 46 42 37 39 54 40 39 39 68 16 4 4 5 21 77 69 100 100 97 92 39 34 36 35 36 34 31 44 67 69 57 44 40 36 35 54
98 100 100 100 98 100 70 54 59 60 54 62 82 48 38 56 93 63 62 55 36 55 92 80 100 98 97 98 48 39 38 40 39 36 33 33 51 68 62 55 49 42 40 39
91 94 100 100 100 99 71 85 81 76 65 82 93 76 55 75 86 100 98 94 100 100 100 96 99 100 100 98 60 47 45 47 45 44 46 54 70 77 68 57 52 51 45 40
75 82 98 100 100 100 92 84 82 99 93 81 95 96 89 86 86 90 100 100 100 100 100 100 100 100 97 87 67 62 64 66 63 58 57 58 62 58 53 49 44 43 44 39
73 73 76 98 100 100 100 95 83 96 92 97 96 94 100 99 94 84 91 98 96 100 100 100 100 91 77 73 69 66 69 72 72 73 70 65 65 62 54 39 35 36 40 46
23 51 68 87 96 100 100 97 92 93 96 76 98 100 100 100 100 100 100 100 100 94 98 100 100 99 84 75 73 77 81 82 84 87 83 70 71 71 61 42 36 43 52 58
21 14 28 99 100 100 100 100 100 100 99 93 76 100 100 100 100 100 92 90 99 100 100 93 77 69 73 72 80 82 89 91 90 97 100 95 90 92 95 99 80 74 80 91
51 42 30 31 95 100 100 100 99 100 100 95 78 87 100 100 100 100 99 100 100 100 100 99 91 85 82 85 91 96 99 99 100 100 100 100 100 100 100 100 100 100 100 100
41 52 56 48 27 44 97 100 100 100 100 95 97 82 98 100 98 96 97 97 100 100 100 98 93 94 96 98 100 100 100 100 100 100 100 100 100 100 100 100 100 100 100 100
25 50 52 55 44 32 19 35 95 100 100 100 100 94 98 94 100 100 100 100 100 100 100 100 99 87 83 88 100 100 100 100 100 100 100 100 100 100 100 100 100 100 100 100
Wind_Speed
29 23 13 11 9 7 3 4 5 7 8 9 12 14 11 12 11 10 9 9 9 9 10 12 14 14 16 18 17 17 17 18 19 22 23 21 22 23 22 22 20 19 20 25
27 26 18 14 12 10 9 7 6 7 8 10 12 11 8 8 8 8 9 8 6 5 5 6 11 14 14 16 16 14 14 17 19 20 21 20 20 21 21 21 21 21 23 26
25 27 25 16 15 12 12 11 9 8 10 10 12 11 8 7 8 9 8 6 5 7 8 8 12 15 14 13 12 11 12 13 15 18 18 19 20 18 18 18 19 19 23 23
24 26 23 21 16 15 18 15 14 14 11 11 13 10 5 5 4 4 10 10 9 7 12 13 17 15 15 16 16 16 15 15 15 16 17 17 18 19 18 18 22 21 23 20
25 24 24 19 18 17 16 21 18 15 15 16 14 12 9 7 5 4 3 5 9 11 12 13 16 13 12 13 14 15 15 16 15 15 16 15 16 17 17 18 18 18 21 19
24 24 27 22 18 20 16 21 21 19 17 16 17 19 16 14 11 7 6 4 5 8 12 13 15 15 14 13 13 14 14 14 15 14 14 15 15 15 16 17 18 19 17 20
27 28 27 23 18 18 20 21 24 22 21 18 16 16 16 16 16 14 13 10 9 10 13 14 15 15 15 16 16 15 15 13 14 15 16 15 14 14 14 15 16 17 20 18
29 29 27 21 18 19 22 21 27 27 24 21 19 19 17 15 15 15 16 15 14 11 12 16 16 15 16 16 18 17 17 16 16 16 15 14 13 13 13 13 15 17 16 19
33 28 24 22 17 20 23 23 28 30 28 25 22 20 19 18 19 18 17 17 19 19 16 15 14 18 21 20 19 18 19 19 19 18 17 16 14 14 13 13 15 17 18 19
30 26 24 22 20 19 22 22 25 31 31 30 27 24 24 23 22 21 22 21 21 20 24 24 21 18 17 19 23 23 22 21 20 20 19 18 16 14 15 15 15 17 19 20
28 24 22 20 22 21 25 23 24 28 31 32 30 27 26 27 26 26 25 26 26 24 26 25 27 27 25 21 19 20 26 26 25 24 22 20 17 16 15 15 16 18 18 24
31 26 21 19 17 21 23 25 25 25 30 32 30 30 25 24 27 29 31 31 30 32 32 30 28 27 31 29 25 23 22 23 24 24 25 24 21 18 16 17 18 20 21 19
28 28 21 19 16 18 23 24 24 25 26 30 32 30 29 29 31 33 34 35 37 38 36 35 34 33 29 28 29 28 25 23 22 23 26 26 24 22 20 20 20 23 24 23
25 26 23 18 17 16 18 18 18 18 18 21 24 25 25 26 29 33 37 42 47 46 46 44 41 38 34 32 27 28 25 24 21 22 24 25 26 24 24 22 22 23 24 25
23 23 21 17 14 13 11 12 12 13 13 13 15 17 20 24 29 37 44 50 55 55 52 52 50 44 39 34 33 25 22 20 18 20 24 23 26 26 24 22 22 23 25 24
21 20 16 11 8 8 7 8 3 2 2 5 8 14 19 24 31 39 47 55 64 65 62 51 50 47 44 37 34 27 23 18 17 17 20 22 23 25 24 23 23 24 27 27
22 19 14 12 11 10 6 5 7 4 3 3 8 14 18 24 38 50 44 38 36 47 55 53 38 33 39 38 30 29 28 22 16 14 17 19 21 22 23 22 24 24 24 26
21 18 15 12 14 10 9 6 5 4 5 4 10 15 17 24 38 37 19 12 19 28 43 52 34 22 30 32 27 28 26 24 22 21 19 18 21 22 23 24 24 23 23 25
23 19 17 12 14 10 9 5 5 3 2 4 8 14 13 22 30 38 38 32 22 22 36 36 42 27 24 17 21 24 22 21 21 22 22 22 22 24 24 25 25 26 25 24
23 24 19 14 12 12 11 7 5 3 3 5 6 10 11 17 20 23 22 26 20 19 25 25 24 21 18 18 20 21 22 21 21 20 20 22 23 23 25 25 26 25 26 27
20 22 23 17 11 12 14 9 6 4 4 6 4 6 7 7 9 9 15 15 6 7 7 12 13 11 13 15 18 19 19 19 20 20 21 22 24 25 28 28 27 26 24 26
21 21 23 21 16 10 20 16 12 11 8 6 6 3 3 3 2 3 2 2 3 8 7 3 9 11 12 13 13 13 15 18 21 21 21 21 22 24 25 26 25 26 25 25
18 19 20 20 19 12 11 22 20 18 15 11 8 7 6 4 3 6 7 5 2 3 2 5 10 12 12 11 11 12 14 17 19 19 19 18 19 22 23 24 24 25 25 26
17 17 15 14 15 14 10 10 22 24 21 19 13 11 12 10 10 9 9 7 8 9 7 11 13 12 13 15 18 18 16 15 16 15 16 16 15 16 17 17 20 23 24 24
19 17 17 16 15 12 13 14 15 18 27 23 19 16 15 15 13 14 12 9 8 7 9 10 9 9 11 13 13 14 16 15 15 17 15 15 14 17 14 14 16 19 19 21
26 22 21 19 18 17 17 16 16 18 20 26 30 25 20 18 19 18 17 14 12 12 11 11 11 10 9 9 10 12 13 14 13 10 14 16 18 14 13 15 16 17 19 22
26 26 24 23 19 18 15 18 18 18 19 21 23 28 31 26 24 24 22 19 19 20 19 17 14 13 11 9 7 7 8 9 9 9 9 9 10 7 4 4 4 6 8 10
Wind_Direction
325 321 294 309 312 284 193 119 102 105 127 113 109 106 110 128 131 147 160 163 165 173 192 204 209 205 197 200 204 213 217 215 215 218 223 226 223 223 228 230 226 223 219 217
328 317 300 281 291 245 240 186 146 143 145 145 132 128 131 135 136 146 153 161 177 189 189 193 194 193 191 196 191 195 211 215 218 218 219 220 225 225 223 221 213 207 209 213
325 311 306 286 269 243 231 216 196 167 165 159 148 136 141 156 172 173 170 179 203 208 188 182 183 188 196 194 199 214 219 221 221 219 224 228 226 225 220 214 205 205 211 217
324 309 304 294 262 259 230 229 222 207 195 181 181 179 181 196 193 208 224 228 225 220 207 193 183 194 198 202 210 211 213 209 206 209 211 212 213 209 202 196 200 208 219 220
319 301 296 288 265 250 244 221 228 219 212 214 210 206 211 198 199 213 207 219 223 227 212 206 194 210 209 208 205 207 201 201 201 204 209 212 210 208 205 208 212 215 223 228
307 296 295 290 271 248 248 232 224 231 225 218 223 225 221 219 217 216 209 197 210 200 203 207 215 214 213 214 213 206 206 205 209 210 215 215 215 216 218 219 219 224 224 222
300 292 292 288 264 251 240 236 228 229 231 228 225 229 231 229 225 224 212 219 214 207 211 218 216 214 212 215 213 214 220 218 214 212 214 221 224 224 221 225 226 221 221 218
292 297 297 284 265 252 239 240 231 222 232 234 233 235 234 235 236 231 231 222 217 223 220 219 220 221 221 221 220 218 220 219 221 222 225 224 227 229 225 229 230 224 220 212
299 307 303 290 266 248 240 239 228 230 225 231 236 241 242 241 240 241 240 239 234 225 228 233 230 228 227 227 225 223 221 220 222 225 230 236 238 237 233 233 230 224 216 214
310 310 308 296 286 249 240 236 231 229 231 234 232 235 241 246 247 246 247 245 244 242 235 231 233 241 243 239 234 234 234 229 231 232 235 240 241 241 238 238 230 225 223 220
313 314 305 295 280 265 239 235 237 233 234 239 239 241 243 245 246 247 249 250 247 244 243 244 237 240 240 241 243 244 240 240 239 239 240 242 247 246 244 244 239 229 235 221
316 313 304 293 282 263 251 245 242 241 238 239 244 244 246 253 257 258 257 253 250 248 246 246 245 244 243 240 241 245 249 245 244 242 241 241 241 241 241 244 241 235 240 230
319 320 305 295 288 259 249 253 252 251 243 237 241 248 252 258 260 260 258 257 254 252 252 247 243 244 243 245 242 242 247 250 249 247 244 244 242 240 240 240 240 240 243 242
322 323 312 293 286 277 257 258 258 258 243 239 242 254 262 266 265 261 258 256 251 246 245 245 243 239 237 239 242 243 244 248 251 248 246 244 243 242 244 244 244 244 244 243
321 326 318 301 287 275 260 242 233 231 237 249 260 268 276 279 274 269 261 256 254 247 239 237 239 239 236 232 236 238 241 242 246 243 244 245 243 239 244 246 244 248 246 244
316 323 323 319 295 271 252 234 200 131 237 273 293 286 278 292 297 301 282 266 252 244 239 225 234 236 232 230 230 228 234 234 237 236 242 245 246 242 244 244 244 250 245 245
307 313 316 317 317 293 243 150 153 181 263 285 302 308 306 313 321 318 296 274 250 230 224 213 207 227 227 222 225 224 231 235 236 237 239 240 247 249 248 246 242 245 253 250
301 309 307 301 309 271 150 155 194 216 218 292 346 338 336 349 354 352 330 274 227 207 199 189 188 197 223 214 217 221 229 233 238 247 249 247 245 247 249 251 252 248 248 251
295 314 312 302 313 212 184 210 208 225 201 296 358 360 350 9 9 32 61 70 104 142 167 176 187 187 206 205 208 216 226 231 238 244 249 247 246 249 251 251 252 253 255 254
299 297 310 312 317 205 192 206 205 174 225 283 7 3 12 12 5 13 52 88 93 124 142 170 190 210 206 193 202 213 225 236 244 246 247 247 242 245 250 252 253 254 257 259
290 289 290 307 309 239 202 205 217 214 241 265 311 1 3 15 1 5 9 35 54 110 147 173 186 190 184 189 207 222 232 242 251 254 253 252 253 250 249 252 254 252 254 256
282 282 278 285 296 292 223 219 232 237 246 271 269 259 303 312 352 33 45 358 74 161 179 166 173 199 204 208 220 233 242 244 251 255 257 260 264 263 256 251 249 249 252 256
323 302 287 269 273 285 259 234 229 239 249 258 258 234 220 217 299 279 255 271 221 192 183 174 182 202 226 228 240 248 254 251 248 250 255 259 265 263 259 251 249 250 253 256
329 339 319 283 270 262 260 272 246 238 245 253 255 243 231 231 245 246 243 253 259 259 213 218 231 248 252 250 250 249 248 251 246 250 263 275 279 275 268 254 245 247 251 253
319 330 337 322 283 270 267 261 248 244 240 244 250 243 238 237 239 235 240 262 288 253 236 240 237 239 241 246 246 242 242 246 252 261 260 250 263 254 247 253 251 249 249 249
294 300 308 315 316 298 275 264 261 255 246 239 235 238 238 237 237 237 241 251 254 252 259 245 243 241 251 256 249 242 240 242 239 235 249 249 244 249 238 242 246 255 259 262
315 288 292 296 302 305 297 281 270 263 258 250 242 238 237 236 238 242 247 247 244 244 249 259 252 247 250 244 231 206 200 205 216 219 216 223 217 202 194 184 160 213 238 258